Change the Weather History Date:

Wednesday, April 23, 2014

  Actual Average Record
Temperature  
Mean Temperature 47 °F 46 °F  
Max Temperature 60 °F 60 °F 85 °F (2012)
Min Temperature 33 °F 31 °F 13 °F (2013)
Degree Days  
Heating Degree Days 18 19  
Month to date heating degree days 490 512  
Since 1 July heating degree days 6972 6830  
Cooling Degree Days 0 0  
Month to date cooling degree days 0 0  
Year to date cooling degree days 0 0  
Moisture  
Dew Point 27 °F    
Average Humidity 45    
Maximum Humidity 75    
Minimum Humidity 15    
Precipitation  
Precipitation T in 0.06 in 0.84 in (2003)
Month to date precipitation 0.73 1.06  
Year to date precipitation 2.97 2.70  
Sea Level Pressure  
Sea Level Pressure 29.61 in    
Wind  
Wind Speed 18 mph (WNW)    
Max Wind Speed 40 mph    
Max Gust Speed 52 mph    
Visibility 10 miles    
Events      
T = Trace of Precipitation, MM = Missing Value Source: NWS Daily Summary

Daily Weather History Graph

Daily Weather History Graph

Search for Another Location

Airport or City:

Trip Planner

Search our weather history database for the weather conditions in past years. The results will help you decide how hot, cold, wet, or windy it might be!

Date:

Astronomy

Apr. 23, 2014 Rise Set
Actual Time 6:07 AM MDT 7:53 PM MDT
Civil Twilight 5:37 AM MDT 8:23 PM MDT
Nautical Twilight 5:00 AM MDT 9:00 PM MDT
Astronomical Twilight 4:21 AM MDT 9:39 PM MDT
Moon 2:49 AM MDT (4/23) 1:56 PM MDT (4/23)
Length of Visible Light 14h 46m
Length of Day
13h 45m
Waning Crescent, 34% of the Moon is Illuminated
Apr 23
Waning Crescent
Apr 29
New
May 6
First Quarter
May 14
Full
May 21
Last Quarter

Hourly Weather History & Observations

Time (MDT) Temp. Windchill Dew Point Humidity Pressure Visibility Wind Dir Wind Speed Gust Speed Precip Events Conditions
12:53 AM 51.1 °F - 37.9 °F 61% 29.43 in 10.0 mi SE 6.9 mph - N/A   Clear
1:53 AM 50.0 °F - 37.9 °F 63% 29.42 in 10.0 mi South 8.1 mph - N/A   Clear
2:49 AM 55.4 °F - 37.4 °F 51% 29.56 in 10.0 mi WNW 20.7 mph 26.5 mph N/A   Clear
2:53 AM 55.0 °F - 37.0 °F 51% 29.43 in 10.0 mi WNW 17.3 mph - N/A   Clear
3:00 AM 54.0 °F - 37.9 °F 55% 29.55 in 10.0 mi WNW 18.4 mph - N/A   Clear
3:53 AM 50.0 °F - 37.9 °F 63% 29.45 in 10.0 mi NW 9.2 mph - N/A   Clear
4:53 AM 53.1 °F - 37.9 °F 57% 29.46 in 10.0 mi West 20.7 mph 28.8 mph N/A   Clear
5:53 AM 51.1 °F - 34.0 °F 52% 29.49 in 10.0 mi West 16.1 mph 25.3 mph N/A   Clear
6:53 AM 50.0 °F - 26.1 °F 39% 29.54 in 10.0 mi West 18.4 mph - N/A   Scattered Clouds
7:53 AM 50.0 °F - 26.1 °F 39% 29.57 in 10.0 mi WSW 5.8 mph - N/A   Partly Cloudy
8:53 AM 51.1 °F - 26.1 °F 38% 29.56 in 10.0 mi WSW 19.6 mph 25.3 mph N/A   Clear
9:53 AM 54.0 °F - 26.1 °F 34% 29.57 in 10.0 mi West 24.2 mph 32.2 mph N/A   Clear
10:53 AM 55.0 °F - 24.1 °F 30% 29.57 in 10.0 mi West 34.5 mph 44.9 mph N/A   Clear
11:53 AM 57.0 °F - 21.9 °F 26% 29.58 in 10.0 mi West 31.1 mph 46.0 mph N/A   Clear
12:53 PM 59.0 °F - 12.9 °F 16% 29.58 in 10.0 mi West 33.4 mph 51.8 mph N/A   Clear
1:53 PM 60.1 °F - 15.1 °F 17% 29.59 in 10.0 mi WNW 34.5 mph 40.3 mph N/A   Clear
2:53 PM 55.9 °F - 12.0 °F 18% 29.61 in 10.0 mi West 31.1 mph 36.8 mph N/A   Clear
3:53 PM 55.0 °F - 9.0 °F 16% 29.64 in 10.0 mi West 26.5 mph 38.0 mph N/A   Clear
4:53 PM 57.0 °F - 12.9 °F 18% 29.62 in 10.0 mi West 26.5 mph 36.8 mph N/A   Clear
5:53 PM 57.0 °F - 10.0 °F 15% 29.64 in 10.0 mi West 24.2 mph 34.5 mph N/A   Clear
6:15 PM 52.0 °F - 30.0 °F 43% 29.75 in 10.0 mi NNE 19.6 mph 24.2 mph N/A   Scattered Clouds
6:53 PM 51.1 °F - 30.0 °F 44% 29.71 in 10.0 mi North 11.5 mph - N/A   Mostly Cloudy
7:53 PM 46.9 °F - 27.0 °F 46% 29.76 in 10.0 mi NW 12.7 mph - 0.00 in   Overcast
8:53 PM 44.1 °F 40.1 °F 30.0 °F 58% 29.80 in 10.0 mi NW 6.9 mph - N/A   Overcast
9:53 PM 39.9 °F 33.9 °F 30.0 °F 68% 29.85 in 10.0 mi NNW 9.2 mph - N/A   Clear
10:53 PM 39.9 °F 35.8 °F 30.9 °F 70% 29.87 in 10.0 mi NW 5.8 mph - N/A   Mostly Cloudy
11:53 PM 36.0 °F 33.3 °F 28.9 °F 76% 29.88 in 10.0 mi WNW 3.5 mph - N/A   Clear